Home > Weather > Santa Cruz > Past weeks

Flag for Bolivia Past Weather in Santa Cruz, Bolivia — Yesterday and Last 2 Weeks

Now
57 °F

Partly cloudy.


Feels Like: 54 °F
Forecast: 55 / 67 °F
Wind: 16 mph from South

Location: Viru-Viru

Current Time: Jun 26, 2016 at 4:18:08 AM

Latest Report: Jun 26, 2016 at 4:00 AM


Visibility: N/A

Pressure: 30.07 "Hg

Humidity: 82%

Dew Point: 52 °F

Location of Santa CruzLocation

Past Weather in Santa Cruz — Graph

°F

Santa Cruz Temperature Yesterday

Maximum temperature yesterday: 84 °F (at 3:00 PM)
Minimum temperature yesterday: 59 °F (at 6:00 AM)
Average temperature yesterday: 71 °F

High & Low Weather Summary for the Past Weeks

 TemperatureHumidityPressure
High86 °F (Jun 15, 5:00 PM)100% (Jun 14, 6:00 AM)30.42 "Hg (Jun 14, 6:00 AM)
Low46 °F (Jun 13, 5:00 AM)27% (Jun 20, 2:00 PM)29.83 "Hg (Jun 24, 3:00 PM)
Average66 °F60%30.12 "Hg
* Reported Jun 11 3:00 AM — Jun 26 3:00 AM, Santa Cruz, Weather by CustomWeather, © 2016

Note: Actual official high and low records may vary slightly from our data, if they occured in-between our weather recording intervals... More about our weather records

Advertising

Santa Cruz Weather History for the Previous 24 Hours

Scroll right to see more
 ConditionsComfort  
Time TempWeatherWind HumidityBarometerVisibility
3:00 AM
Sun, Jun 26
57 °FPartly cloudy.15 mph82%30.07 "HgN/A
2:00 AM59 °FPassing clouds.18 mph82%30.07 "HgN/A
1:00 AM59 °FPartly cloudy.17 mph82%30.07 "HgN/A
12:00 AM61 °FPartly cloudy.21 mph72%30.07 "HgN/A
11:00 PM
Sat, Jun 25
64 °FPartly cloudy.17 mph68%30.04 "HgN/A
10:00 PM66 °FPartly cloudy.5 mph94%30.01 "HgN/A
9:00 PM68 °FPartly cloudy.5 mph88%29.98 "HgN/A
8:00 PM73 °FPartly cloudy.5 mph78%29.95 "HgN/A
7:00 PM75 °FPartly cloudy.6 mph74%29.95 "HgN/A
6:00 PM79 °FPartly cloudy.12 mph65%29.92 "HgN/A
5:00 PM82 °FScattered clouds.15 mph55%29.92 "HgN/A
4:00 PM82 °FPartly sunny.14 mph55%29.92 "HgN/A
3:00 PM84 °FBroken clouds.14 mph51%29.92 "HgN/A
2:00 PM82 °FPartly sunny.8 mph58%29.95 "HgN/A
1:00 PM81 °FPartly sunny.10 mph54%29.98 "HgN/A
12:00 PM79 °FBroken clouds.9 mph51%30.01 "HgN/A
11:00 AM75 °FBroken clouds.10 mph57%30.04 "HgN/A
10:00 AM73 °FBroken clouds.9 mph57%30.07 "HgN/A
9:00 AM70 °FPartly sunny.12 mph64%30.07 "HgN/A
8:00 AM64 °FBroken clouds.5 mph100%30.07 "Hg4 mi
7:00 AM61 °FClear.3 mph100%30.04 "Hg5 mi
6:00 AM59 °FClear.3 mph100%29.98 "HgN/A
5:00 AM61 °FClear.No wind100%29.98 "HgN/A
4:00 AM63 °FClear.2 mph100%29.95 "HgN/A
Weather by CustomWeather, © 2016

See weather overviewHow to use our weather pages